TPC178 KJAN-KSAV

Flight info

Callsign TPC178
Flight time N/A
Altitude 39000
Route REECO MEI MCN DBN LOTTS T408 MAYAR
Aircraft C700/M-SBDGHM1RWXY/LB2

Departure

Time 2026-05-07 23:28
Airport Jackson-Medgar Wiley Evers International Airport (KJAN)

Arrival

Time N/A
Airport Savannah Hilton Head International Airport (KSAV)
Time Latitude Longitude Altitude Speed Heading
2026-05-07 23:10 32.30655 -90.07627 335 ft 0 kts 55°
2026-05-07 23:23 32.30628 -90.07606 331 ft 10 kts 168°
2026-05-07 23:23 32.30572 -90.07658 335 ft 12 kts 230°
2026-05-07 23:23 32.30492 -90.07657 336 ft 13 kts 157°
2026-05-07 23:24 32.30394 -90.07612 330 ft 17 kts 158°
2026-05-07 23:24 32.30274 -90.07554 333 ft 20 kts 158°
2026-05-07 23:24 32.30155 -90.07497 335 ft 19 kts 158°
2026-05-07 23:24 32.30026 -90.07438 337 ft 21 kts 159°
2026-05-07 23:25 32.29893 -90.07373 346 ft 21 kts 158°
2026-05-07 23:25 32.29756 -90.07307 351 ft 22 kts 157°
2026-05-07 23:25 32.29617 -90.07240 344 ft 21 kts 159°
2026-05-07 23:25 32.29501 -90.07207 345 ft 14 kts 211°
2026-05-07 23:26 32.29470 -90.07284 353 ft 5 kts 249°
2026-05-07 23:26 32.29464 -90.07304 351 ft 0 kts 248°
2026-05-07 23:27 32.29449 -90.07345 351 ft 10 kts 247°
2026-05-07 23:27 32.29448 -90.07420 352 ft 9 kts 306°
2026-05-07 23:28 32.29556 -90.07478 353 ft 49 kts 338°
2026-05-07 23:28 32.30215 -90.07788 368 ft 147 kts 337°
2026-05-07 23:28 32.31355 -90.08347 952 ft 195 kts 337°
2026-05-07 23:28 32.32560 -90.08949 2611 ft 190 kts 337°
2026-05-07 23:29 32.33829 -90.09591 3865 ft 217 kts 336°
2026-05-07 23:29 32.35391 -90.10369 4014 ft 258 kts 336°
2026-05-07 23:29 32.37077 -90.11178 4009 ft 262 kts 337°
2026-05-07 23:29 32.38765 -90.11981 4074 ft 261 kts 337°
2026-05-07 23:30 32.40437 -90.12769 5593 ft 247 kts 335°
2026-05-07 23:30 32.42058 -90.13456 7294 ft 257 kts 335°
2026-05-07 23:30 32.43783 -90.14082 8947 ft 260 kts 336°
2026-05-07 23:30 32.45544 -90.14669 10470 ft 270 kts 336°
2026-05-07 23:31 32.47449 -90.15286 11440 ft 297 kts 336°
2026-05-07 23:31 32.49476 -90.15904 12912 ft 305 kts 338°
2026-05-07 23:31 32.51697 -90.15933 14253 ft 338 kts
2026-05-07 23:31 32.53943 -90.14799 15525 ft 368 kts 26°
2026-05-07 23:32 32.55744 -90.12514 16756 ft 395 kts 53°
2026-05-07 23:32 32.56702 -90.09407 17953 ft 412 kts 80°
2026-05-07 23:32 32.56653 -90.05987 19040 ft 418 kts 101°
2026-05-07 23:32 32.56004 -90.02644 20076 ft 423 kts 109°
2026-05-07 23:33 32.55175 -89.99261 21073 ft 431 kts 110°
2026-05-07 23:33 32.54477 -89.95766 22085 ft 440 kts 103°
2026-05-07 23:33 32.54037 -89.92138 23052 ft 449 kts 99°
2026-05-07 23:33 32.53671 -89.88430 23919 ft 456 kts 101°
2026-05-07 23:34 32.53348 -89.85953 24434 ft 460 kts 103°
2026-05-07 23:34 32.52737 -89.82200 25236 ft 466 kts 105°
2026-05-07 23:34 32.52135 -89.78388 26036 ft 475 kts 103°
2026-05-07 23:34 32.51618 -89.74492 26799 ft 483 kts 102°
2026-05-07 23:35 32.51098 -89.70536 27530 ft 490 kts 103°
2026-05-07 23:35 32.50509 -89.66525 28241 ft 496 kts 103°
2026-05-07 23:35 32.49895 -89.62473 28954 ft 503 kts 103°
2026-05-07 23:35 32.49306 -89.58343 29681 ft 511 kts 102°
2026-05-07 23:36 32.48733 -89.54216 30356 ft 517 kts 103°
2026-05-07 23:36 32.48123 -89.49987 30988 ft 522 kts 103°
2026-05-07 23:36 32.47492 -89.45726 31589 ft 528 kts 103°
2026-05-07 23:36 32.46862 -89.41408 32167 ft 533 kts 103°
2026-05-07 23:37 32.46237 -89.37061 32731 ft 538 kts 104°
2026-05-07 23:37 32.45599 -89.32666 33278 ft 543 kts 104°
2026-05-07 23:37 32.44948 -89.28248 33837 ft 548 kts 104°
2026-05-07 23:37 32.44290 -89.23787 34333 ft 553 kts 104°
2026-05-07 23:38 32.43631 -89.19287 34802 ft 558 kts 104°
2026-05-07 23:38 32.42964 -89.14741 35277 ft 562 kts 104°
2026-05-07 23:38 32.42286 -89.10162 35770 ft 565 kts 104°
2026-05-07 23:38 32.41615 -89.05635 36387 ft 564 kts 104°
2026-05-07 23:39 32.40934 -89.01047 36930 ft 564 kts 104°
2026-05-07 23:39 32.40252 -88.96464 37453 ft 564 kts 104°
2026-05-07 23:39 32.39567 -88.91879 37990 ft 564 kts 104°
2026-05-07 23:39 32.38880 -88.87301 38449 ft 564 kts 104°
2026-05-07 23:40 32.38259 -88.82766 38842 ft 567 kts 99°
2026-05-07 23:40 32.38095 -88.78076 39025 ft 575 kts 90°
2026-05-07 23:40 32.38823 -88.68512 39037 ft 587 kts 84°
2026-05-07 23:41 32.39576 -88.58888 39044 ft 584 kts 85°
2026-05-07 23:41 32.40335 -88.49405 39039 ft 579 kts 84°
2026-05-07 23:42 32.41078 -88.39893 39043 ft 580 kts 85°
2026-05-07 23:42 32.41818 -88.30365 39045 ft 584 kts 85°
2026-05-07 23:43 32.42548 -88.20895 39047 ft 585 kts 85°
2026-05-07 23:43 32.43273 -88.11331 39040 ft 582 kts 85°
2026-05-07 23:44 32.43991 -88.01843 39038 ft 581 kts 85°